Regional Weather Roundup
Issued by NWS

Home | Current Version | Previous Version | Graphics & Text | Print | Product List | Glossary On
Versions: 1 2 3 4 5 6 7 8 9 10 11 12 13 14 15 16 17 18 19 20 21 22 23 24 25 26 27 28 29 30 31 32 33 34 35 36 37 38 39 40 41 42 43 44 45 46 47 48 49 50
000
ASUS43 KMKX 301021
RWRWI

WISCONSIN REGIONAL WEATHER ROUNDUP
NATIONAL WEATHER SERVICE MILWAUKEE/SULLIVAN WI
500 AM CDT THU OCT 30 2014

NOTE: "FAIR" INDICATES FEW OR NO CLOUDS BELOW 12,000 FEET WITH NO
SIGNIFICANT WEATHER AND/OR OBSTRUCTIONS TO VISIBILITY.

WIZ001-002-006>008-014>016-023>028-301100-
NORTHWEST WISCONSIN

CITY           SKY/WX    TMP DP  RH WIND       PRES   REMARKS
SUPERIOR ARPT  CLOUDY    37  34  89 CALM      30.06S
ASHLAND        CLOUDY    38  33  82 W5        30.06F WCI  34
HAYWARD        CLOUDY    37  32  82 CALM      30.05S
SIREN          CLOUDY    35  33  91 CALM      30.06S
CUMBERLAND     CLOUDY    34  32  93 CALM      30.05F
RICE LAKE      CLOUDY    33  32  94 CALM      30.07S
CHETEK         CLOUDY    33  32  94 CALM      30.06F
LADYSMITH      CLOUDY    35  32  91 CALM      30.07S
EAU CLAIRE     CLOUDY    35  32  88 CALM      30.06S
MENOMONIE      CLOUDY    35  33  93 E3        30.06F
NEW RICHMOND   CLOUDY    36  34  92 CALM      30.05S
OSCEOLA        CLOUDY    36  36  99 CALM      30.09S
$$

WIZ003>005-009-010-017-018-301100-
NORTH CENTRAL WISCONSIN

CITY           SKY/WX    TMP DP  RH WIND       PRES   REMARKS
MANITOWISH WTR CLOUDY    36  33  90 CALM      30.03S
ARBOR VITAE    CLOUDY    37  33  87 CALM      30.03S
WOODRUFF       CLOUDY    37  33  87 CALM      30.03S
RHINELANDER    CLOUDY    37  32  82 CALM      30.05S
EAGLE RIVER    CLOUDY    36  30  79 W3        30.03S
LAND O LAKES   CLOUDY    36  32  86 CALM      30.04S
PHILLIPS       CLOUDY    36  32  85 W3        30.04S
TOMAHAWK       CLOUDY    35  32  89 CALM      30.05S
MEDFORD        MOCLDY    31  30  98 CALM      30.05S
MERRILL        CLOUDY    31  31  99 CALM      30.06S
$$

WIZ029-030-035-036-043>047-301100-
CENTRAL WISCONSIN

CITY           SKY/WX    TMP DP  RH WIND       PRES   REMARKS
WAUSAU         MOCLDY    33  31  92 CALM      30.06S
MOSINEE        MOCLDY    32  32 100 CALM      30.07S FOG
MARSHFIELD     CLOUDY    34  31  88 CALM      30.06S
STEVENS POINT  MOCLDY    30  29  98 CALM      30.07F
WAUPACA        CLOUDY    33  32  95 CALM      30.09S
WAUTOMA        MOCLDY    30  29  96 CALM      30.09F
WISC RAPIDS    CLOUDY    33  31  92 CALM      30.08F
CAMP DOUGLAS   CLOUDY    31  31 100 SE2       30.08S
$$

WIZ011>013-019>022-031-037>040-048>050-301100-
NORTHEAST WISCONSIN

CITY           SKY/WX    TMP DP  RH WIND       PRES   REMARKS
ANTIGO         CLOUDY    33  32  98 CALM      30.05S
SHAWANO        CLOUDY    39  34  84 SW3       30.08S
OCONTO         CLOUDY    37  37  97 CALM      30.08R
STURGEON BAY   CLOUDY    41  34  75 CALM      30.08S
GREEN BAY      MOCLDY    37  34  89 W3        30.08F
MANITOWOC      PTCLDY    38  35  89 W5        30.09S WCI  34
APPLETON       MOCLDY    34  32  93 W7        30.08S WCI  28
CLINTONVILLE   CLOUDY    34  32  93 CALM      30.08S
OSHKOSH        MOCLDY    36  32  85 SW5       30.08S WCI  32
$$

WIZ032>034-041-042-053>061-301100-
SOUTHWEST WISCONSIN

CITY           SKY/WX    TMP DP  RH WIND       PRES   REMARKS
LA CROSSE      MOCLDY    37  34  89 SE6       30.08S WCI  32
SPARTA         MOCLDY    30  29  96 CALM      30.09S
VIROQUA        MOCLDY    36  33  88 S5        30.07S WCI  32
BOSCOBEL       MOCLDY    31  28  89 CALM      30.11S FOG
PRAIRIE DU CHI PTCLDY    32  31  95 E5        30.09F WCI  27
PLATTEVILLE    MOCLDY    33  31  92 SE6       30.11S WCI  28
$$

WIZ056-057-062-063-064-067-068-301100-
SOUTH CENTRAL WISCONSIN

CITY           SKY/WX    TMP DP  RH WIND       PRES   REMARKS
REEDSBURG      PTCLDY    30  29  98 CALM      30.09S
BARABOO/DELLS  PTCLDY    31  29  94 S3        30.08F
LONE ROCK      PTCLDY    34  27  75 CALM      30.11S
MINERAL POINT  PTCLDY    34  32  93 S3        30.09S
MADISON        PTCLDY    33  30  88 CALM      30.10S
MIDDLETON      PTCLDY    35  32  91 CALM      30.10S
WATERTOWN      MOCLDY    29  29  99 CALM      30.10S
MONROE         PTCLDY    36  32  87 SW7       30.10S WCI  30
JANESVILLE     MOCLDY    32  30  93 CALM      30.11R
$$

WIZ051-052-058>065-066-070>072-301100-
SOUTHEAST WISCONSIN

CITY           SKY/WX    TMP DP  RH WIND       PRES   REMARKS
MILWAUKEE      MOCLDY    36  30  79 CALM      30.11S
WAUKESHA       MOCLDY    32  30  93 CALM      30.11S
MILWAUKEE/TIMM MOCLDY    32  30  93 CALM      30.11S
RACINE         MOCLDY    35  31  85 SW3       30.13S
BURLINGTON     MOCLDY    28  28  98 CALM      30.11S
KENOSHA        MOCLDY    32  31  96 SW3       30.11F
FOND DU LAC    MOCLDY    32  29  88 S3        30.10S
SHEBOYGAN      PTCLDY    32  30  92 W5        30.10R WCI  27
WEST BEND      MOCLDY    32  30  93 CALM      30.10R
JUNEAU         MOCLDY    31  30  94 CALM      30.11R
$$

LSZ147-162-301100-
LAKE SUPERIOR

STATION/POSITION TIME  TEMP    WIND        PRES    WAVE
                       AIR SEA DIR/SP/G            HT/PER
                 (UTC) (F)     (DEG/KT/KT) (MB)    (FT/S)
W MID LAKE BUOY  0950   42 45  260/ 12/ 14 1017.2F   2/ 4
DEVILS ISLAND    1000   40     260/ 12/ 16 1018.1F
PORT WING        0900   39     200/  5/  8 1017.9F
SAXON HARBOR     0900   41        CALM     1017.6S
$$

LMZ867-665-643>646-301100-
LAKE MICHIGAN

STATION/POSITION TIME  TEMP    WIND        PRES    WAVE
                       AIR SEA DIR/SP/G            HT/PER
                 (UTC) (F)     (DEG/KT/KT) (MB)    (FT/S)
CHAMBERS ISLAND  0900   41      CALM  /  3 1018.6S
N MID LAKE BUOY  0950   44 51   CALM  /  2 1018.7S   0
NORTHPORT PIER   0900   42     200/  1/  3 1018.3F
KEWAUNEE LAKESHO 1000   40     290/  3/  3 1017.8R
SHEBOYGAN LAKESH 1000   38 50  260/  9/ 10 1019.9R
PORT WASHINGTON  0900   38     280/  4/  6 1020.0S
ATWATER BUOY     1000   43     240/  8/  8 1020.6R
MILWAUKEE LAKESH 1000   43     290/  2/  3   N/A
S MID LAKE BUOY  0950   47 53  240/  4/  6 1020.2F   2/ 5
KENOSHA   LAKESH 1000   38     250/  7/  8 1019.6S
$$

TC  - TEMPERATURE IN CELSIUS
VSB - VISIBILITY IN STATUTE MILES
WCI - WIND CHILL INDEX
HX  - HEAT INDEX




USA.gov is the U.S. government's official web portal to all federal, state and local government web resources and services.